Overview Statistics Trail Chart Weather Telemetry Raw packets
 

This is the latest recevied weather packets stored in our database for station/object OE6JUE. If no packets are shown the sender has not sent any weather packets the latest 10 day(s).

<< 26 27 28 29 30 31 32 >>
Time Temp. Humidity Pressure Rain* Wind** Luminosity Snow
1788510235 27.22° C 42% 1022.2 hPa 0 mm - - -
1788509935 27.22° C 42% 1022.3 hPa 0 mm - - -
1788509635 27.22° C 44% 1022.2 hPa 0 mm - - -
1788509335 27.22° C 43% 1022.1 hPa 0 mm - - -
1788509035 27.22° C 44% 1022.1 hPa 0 mm - - -
1788508735 27.22° C 44% 1022.2 hPa 0 mm - - -
1788508435 27.22° C 45% 1022.3 hPa 0 mm - - -
1788508135 26.67° C 44% 1022.1 hPa 0 mm - - -
1788507836 26.67° C 45% 1022.1 hPa 0 mm - - -
1788507535 26.11° C 45% 1022.1 hPa 0 mm - - -
1788507235 26.67° C 44% 1022.1 hPa 0 mm - - -
1788506935 26.67° C 45% 1022.1 hPa 0 mm - - -
1788506635 26.67° C 43% 1022.1 hPa 0 mm - - -
1788506184 26.11° C 46% 1022 hPa 0 mm - - -
1788505884 25.56° C 45% 1022 hPa 0 mm - - -
1788505584 26.11° C 45% 1022 hPa 0 mm - - -
1788505284 26.67° C 45% 1022 hPa 85.85 mm - - -
1788504984 26.11° C 49% 1022 hPa 0 mm - - -
1788504683 25.56° C 49% 1022 hPa 0 mm - - -
1788504384 25.56° C 47% 1022 hPa 0 mm - - -
1788504084 25.56° C 48% 1021.9 hPa 0 mm - - -
1788503784 25.56° C 49% 1022.1 hPa 0 mm - - -
1788503483 25.56° C 50% 1022.1 hPa 0 mm - - -
1788503184 25.56° C 51% 1022.1 hPa 0 mm - - -
1788502884 25° C 51% 1022 hPa 0 mm - - -

* Rain latest hour (hover to see other rain measurements)
** Current wind speed in m/s (hover to see current wind gust speed)